Weather History for Somerville, NJ

Change the Weather History Date:

Tuesday, February 26, 2013

  Actual Average Record
Temperature  
Mean Temperature 35 °F -  
Max Temperature 45 °F 42 °F 69 °F (1976)
Min Temperature 25 °F 22 °F 3 °F (1967)
Degree Days  
Heating Degree Days 30    
Moisture  
Dew Point 29 °F    
Average Humidity 77    
Maximum Humidity 96    
Minimum Humidity 55    
Precipitation  
Precipitation 0.16 in - - ()
Sea Level Pressure  
Sea Level Pressure 30.15 in    
Wind  
Wind Speed 4 mph (East)    
Max Wind Speed 13 mph    
Max Gust Speed 28 mph    
Visibility 9 miles    
Events Rain    
Averages and records for this station are not official NWS values.
T = Trace of Precipitation, MM = Missing Value Source: NWS Daily Summary

Daily Weather History Graph

Daily Weather History Graph

Search for Another Location

Airport:

Trip Planner

Search our weather history database for the weather conditions in past years. The results will help you decide how hot, cold, wet, or windy it might be!

Date:

Astronomy

Feb. 26, 2013 Rise Set
Actual Time 6:36 AM EST 5:46 PM EST
Civil Twilight 6:09 AM EST 6:14 PM EST
Nautical Twilight 5:37 AM EST 6:46 PM EST
Astronomical Twilight 5:05 AM EST 7:17 PM EST
Moon 7:01 PM EST (2/26) 6:37 AM EST (2/26)
Length of Visible Light 12h 05m
Length of Day
11h 10m
Full, 99% of the Moon is Illuminated
Feb 26
Full
Mar 4
Last Quarter
Mar 11
New
Mar 19
First Quarter
Mar 27
Full

Hourly Weather History & Observations

Time (EST) Temp. Windchill Dew Point Humidity Pressure Visibility Wind Dir Wind Speed Gust Speed Precip Events Conditions
12:53 AM 27.0 °F - 25.0 °F 92% 30.22 in 10.0 mi Calm Calm - N/A   Clear
1:53 AM 28.0 °F - 25.0 °F 88% 30.25 in 10.0 mi Calm Calm - N/A   Overcast
2:53 AM 28.0 °F - 25.0 °F 88% 30.24 in 10.0 mi Calm Calm - N/A   Overcast
3:53 AM 28.0 °F - 25.0 °F 88% 30.25 in 10.0 mi Calm Calm - N/A   Overcast
4:53 AM 26.1 °F - 24.1 °F 92% 30.24 in 10.0 mi Calm Calm - N/A   Clear
5:53 AM 25.0 °F - 24.1 °F 96% 30.22 in 8.0 mi Calm Calm - N/A   Clear
6:53 AM 25.0 °F - 24.1 °F 96% 30.23 in 8.0 mi Calm Calm - N/A   Clear
7:53 AM 28.0 °F - 26.1 °F 92% 30.27 in 9.0 mi Calm Calm - N/A   Clear
8:53 AM 34.0 °F - 30.0 °F 85% 30.27 in 10.0 mi Calm Calm - N/A   Clear
9:53 AM 39.9 °F 36.7 °F 30.9 °F 70% 30.25 in 10.0 mi Variable 4.6 mph - N/A   Clear
10:53 AM 43.0 °F 40.3 °F 30.9 °F 62% 30.25 in 10.0 mi Variable 4.6 mph - N/A   Clear
11:53 AM 44.1 °F 39.0 °F 30.0 °F 58% 30.24 in 10.0 mi East 9.2 mph 16.1 mph N/A   Scattered Clouds
12:53 PM 45.0 °F 38.9 °F 30.0 °F 56% 30.22 in 10.0 mi SE 12.7 mph 19.6 mph N/A   Mostly Cloudy
1:53 PM 44.1 °F 38.6 °F 28.9 °F 55% 30.20 in 10.0 mi East 10.4 mph 17.3 mph N/A   Overcast
2:53 PM 43.0 °F 36.8 °F 28.9 °F 58% 30.17 in 10.0 mi ESE 11.5 mph 21.9 mph N/A   Overcast
3:53 PM 41.0 °F 36.4 °F 30.0 °F 65% 30.15 in 10.0 mi ESE 6.9 mph 19.6 mph N/A   Overcast
4:53 PM 39.9 °F 33.4 °F 30.0 °F 68% 30.12 in 10.0 mi ESE 10.4 mph 19.6 mph N/A   Overcast
5:53 PM 39.9 °F 34.5 °F 30.9 °F 70% 30.10 in 10.0 mi East 8.1 mph 17.3 mph N/A   Overcast
6:53 PM 39.0 °F 32.3 °F 30.0 °F 70% 30.08 in 10.0 mi East 10.4 mph 21.9 mph 0.00 in Rain Light Rain
7:53 PM 39.0 °F 31.4 °F 28.0 °F 65% 30.04 in 10.0 mi East 12.7 mph 25.3 mph 0.00 in   Overcast
8:53 PM 39.0 °F 31.8 °F 30.0 °F 70% 29.97 in 10.0 mi East 11.5 mph 27.6 mph N/A   Overcast
9:31 PM 37.4 °F 29.3 °F 30.2 °F 75% 29.97 in 10.0 mi East 12.7 mph 24.2 mph 0.01 in   Overcast
9:53 PM 37.0 °F 31.6 °F 32.0 °F 82% 29.97 in 7.0 mi East 6.9 mph 18.4 mph 0.01 in Rain Light Rain
10:53 PM 36.0 °F 32.1 °F 34.0 °F 93% 29.88 in 9.0 mi Variable 4.6 mph - 0.07 in Rain Light Rain
11:53 PM 36.0 °F 28.5 °F 34.0 °F 93% 29.84 in 3.0 mi ENE 10.4 mph 20.7 mph 0.08 in Rain Rain